This demonstration page uses our WeatherBlox Daily Observations layout. Learn more.

Hourly Observations for March 5, 2020

Temp ( °F °C ) Dew Point ( °F °C ) Humidity (%) Winds ( mph kmh ) Pressure ( in mb ) Visibility ( mi km ) Precip ( " mm )
12:15 am 00:15 Clear 50 10 32 0 50 50 NNW 8 13 30 1016 10 16.0934 0 0
12:35 am 00:35 Partly Cloudy 50 10 34 1 54 54 NNW 12 19 30.03 1017 10 16.0934 0 0
12:55 am 00:55 Cloudy 50 10 36 2 58 58 N 13 20 30.04 1017 10 16.0934 0 0
1:15 am 01:15 Cloudy 48 9 36 2 62 62 N 10 17 30.06 1018 10 16.0934 0 0
1:35 am 01:35 Partly Cloudy 48 9 36 2 62 62 N 15 24 30.06 1018 10 16.0934 0 0
1:55 am 01:55 Clear 46 8 36 2 66 66 N 10 17 30.08 1019 10 16.0934 0 0
2:15 am 02:15 Clear 46 8 36 2 66 66 N 10 17 30.1 1019 10 16.0934 0 0
2:35 am 02:35 Clear 45 7 32 0 61 61 N 17 28 30.09 1019 10 16.0934 0 0
2:55 am 02:55 Clear 45 7 32 0 61 61 N 15 24 30.1 1019 10 16.0934 0 0
3:15 am 03:15 Clear 45 7 30 -1 57 57 N 10 17 30.11 1020 10 16.0934 0 0
3:35 am 03:35 Clear 43 6 30 -1 61 61 NNE 5 7 30.11 1020 10 16.0934 0 0
3:55 am 03:55 Clear 43 6 30 -1 61 61 NNE 7 11 30.11 1020 10 16.0934 0 0
4:15 am 04:15 Clear 41 5 28 -2 61 61 N 7 11 30.13 1020 10 16.0934 0 0
4:35 am 04:35 Clear 41 5 28 -2 61 61 N 8 13 30.14 1021 10 16.0934 0 0
4:55 am 04:55 Clear 39 4 28 -2 65 65 N 6 9 30.16 1021 10 16.0934 0 0
5:15 am 05:15 Clear 39 4 28 -2 65 65 N 3 6 30.17 1022 10 16.0934 0 0
5:35 am 05:35 Clear 39 4 28 -2 65 65 NNW 7 11 30.18 1022 10 16.0934 0 0
5:55 am 05:55 Clear 37 3 28 -2 70 70 Calm 30.2 1023 10 16.0934 0 0
6:15 am 06:15 Clear 36 2 28 -2 75 75 Calm 30.19 1022 10 16.0934 0 0
6:35 am 06:35 Clear 36 2 28 -2 75 75 Calm 30.19 1022 10 16.0934 0 0
6:55 am 06:55 Sunny 36 2 28 -2 75 75 Calm 30.2 1023 10 16.0934 0 0
7:15 am 07:15 Sunny 36 2 28 -2 75 75 Calm 30.2 1023 10 16.0934 0 0
7:35 am 07:35 Sunny 36 2 30 -1 81 81 Calm 30.21 1023 10 16.0934 0 0
7:55 am 07:55 Sunny 37 3 30 -1 75 75 NW 3 6 30.21 1023 10 16.0934 0 0
8:15 am 08:15 Sunny 41 5 30 -1 66 66 N 3 6 30.21 1023 10 16.0934 0 0
8:35 am 08:35 Sunny 43 6 30 -1 61 61 N 5 7 30.22 1023 10 16.0934 0 0
8:55 am 08:55 Sunny 43 6 30 -1 61 61 N 6 9 30.22 1023 10 16.0934 0 0
9:15 am 09:15 Sunny 45 7 30 -1 57 57 N 7 11 30.22 1023 10 16.0934 0 0
9:35 am 09:35 Sunny 45 7 30 -1 57 57 N 6 9 30.22 1023 10 16.0934 0 0
9:55 am 09:55 Sunny 45 7 30 -1 57 57 NNE 6 9 30.21 1023 10 16.0934 0 0
10:15 am 10:15 Sunny 46 8 30 -1 53 53 N 3 6 30.21 1023 10 16.0934 0 0
10:35 am 10:35 Sunny 46 8 30 -1 53 53 NE 3 6 30.21 1023 10 16.0934 0 0
10:55 am 10:55 Sunny 46 8 30 -1 53 53 NNW 6 9 30.2 1023 10 16.0934 0 0
11:15 am 11:15 Sunny 46 8 30 -1 53 53 NE 5 7 30.21 1023 10 16.0934 0 0
11:35 am 11:35 Sunny 48 9 28 -2 46 46 Calm 30.21 1023 10 16.0934 0 0
11:55 am 11:55 Sunny 50 10 28 -2 43 43 Calm 30.2 1023 10 16.0934 0 0
12:15 pm 12:15 Sunny 50 10 28 -2 43 43 NE 3 6 30.19 1022 10 16.0934 0 0
12:35 pm 12:35 Sunny 50 10 28 -2 43 43 Calm 30.19 1022 10 16.0934 0 0
12:55 pm 12:55 Sunny 50 10 27 -3 40 40 Calm 30.17 1022 10 16.0934 0 0
1:15 pm 13:15 Sunny 52 11 28 -2 41 41 Calm 30.15 1021 10 16.0934 0 0
1:35 pm 13:35 Sunny 52 11 30 -1 44 44 SE 3 6 30.13 1020 10 16.0934 0 0
1:55 pm 13:55 Sunny 52 11 28 -2 41 41 E 5 7 30.13 1020 10 16.0934 0 0
2:15 pm 14:15 Sunny 52 11 30 -1 44 44 SSE 6 9 30.13 1020 10 16.0934 0 0
2:35 pm 14:35 Sunny 52 11 28 -2 41 41 S 9 15 30.12 1020 10 16.0934 0 0
2:55 pm 14:55 Sunny 52 11 27 -3 38 38 S 6 9 30.12 1020 10 16.0934 0 0
3:15 pm 15:15 Sunny 52 11 27 -3 38 38 S 6 9 30.11 1020 10 16.0934 0 0
3:35 pm 15:35 Sunny 54 12 27 -3 35 35 S 6 9 30.11 1020 10 16.0934 0 0
3:55 pm 15:55 Sunny 52 11 28 -2 41 41 SSE 7 11 30.09 1019 10 16.0934 0 0
4:15 pm 16:15 Sunny 54 12 28 -2 38 38 SE 6 9 30.08 1019 10 16.0934 0 0
4:35 pm 16:35 Sunny 52 11 28 -2 41 41 S 8 13 30.08 1019 10 16.0934 0 0
4:55 pm 16:55 Sunny 52 11 27 -3 38 38 SSE 7 11 30.08 1019 10 16.0934 0 0
5:15 pm 17:15 Sunny 52 11 28 -2 41 41 S 7 11 30.08 1019 10 16.0934 0 0
5:35 pm 17:35 Sunny 52 11 27 -3 38 38 S 3 6 30.07 1018 10 16.0934 0 0
5:55 pm 17:55 Sunny 52 11 28 -2 41 41 SSE 3 6 30.07 1018 10 16.0934 0 0
6:15 pm 18:15 Clear 52 11 28 -2 41 41 SSE 5 7 30.07 1018 10 16.0934 0 0
6:35 pm 18:35 Clear 50 10 27 -3 40 40 SSE 6 9 30.08 1018 10 16.0934 0 0
6:55 pm 18:55 Clear 50 10 28 -2 43 43 S 10 17 30.08 1018 10 16.0934 0 0
7:15 pm 19:15 Clear 48 9 27 -3 43 43 S 9 15 30.08 1019 10 16.0934 0 0
7:35 pm 19:35 Clear 46 8 28 -2 50 50 S 7 11 30.08 1019 10 16.0934 0 0
7:55 pm 19:55 Clear 45 7 28 -2 53 53 SSW 6 9 30.08 1019 10 16.0934 0 0
8:15 pm 20:15 Clear 45 7 28 -2 53 53 S 3 6 30.08 1019 10 16.0934 0 0
8:35 pm 20:35 Clear 46 8 27 -3 46 46 SSE 7 11 30.07 1018 10 16.0934 0 0
8:55 pm 20:55 Clear 46 8 27 -3 46 46 S 12 19 30.07 1018 10 16.0934 0 0
9:15 pm 21:15 Clear 45 7 28 -2 53 53 S 9 15 30.07 1018 10 16.0934 0 0
9:35 pm 21:35 Clear 43 6 28 -2 57 57 S 8 13 30.06 1018 10 16.0934 0 0
9:55 pm 21:55 Clear 45 7 28 -2 53 53 S 10 17 30.05 1018 10 16.0934 0 0
10:15 pm 22:15 Clear 43 6 28 -2 57 57 S 8 13 30.05 1018 10 16.0934 0 0
10:35 pm 22:35 Clear 43 6 28 -2 57 57 S 8 13 30.04 1017 10 16.0934 0 0
10:55 pm 22:55 Clear 41 5 28 -2 61 61 S 6 9 30.05 1018 10 16.0934 0 0
11:15 pm 23:15 Clear 41 5 28 -2 61 61 SSW 5 7 30.05 1018 10 16.0934 0 0
11:35 pm 23:35 Clear 41 5 28 -2 61 61 S 3 6 30.04 1017 10 16.0934 0 0
11:55 pm 23:55 Clear 37 3 28 -2 70 70 Calm 30.05 1018 10 16.0934 0 0

Powered by AerisWeather